Regional Weather Roundup
Issued by NWS Cleveland, OH

Home | Current Version | Previous Version | Graphics & Text | Print | Product List | Glossary On
Versions: 1 2 3 4 5 6 7 8 9 10 11 12 13 14 15 16 17 18 19 20 21 22 23 24 25 26 27 28 29 30 31 32 33 34 35 36 37 38 39 40 41 42 43 44 45 46 47 48 49 50
000
ASUS41 KCLE 272012
RWRCLE
OHIO REGIONAL WEATHER ROUNDUP
NATIONAL WEATHER SERVICE WILMINGTON, OH
400 PM EDT WED JUL 27 2016

NOTE: "FAIR" INDICATES FEW OR NO CLOUDS BELOW 12,000 FEET WITH NO
SIGNIFICANT WEATHER AND/OR OBSTRUCTIONS TO VISIBILITY.

OHZ001>008-015>018-024>027-034-035-043-044-272100-
   NORTHWEST OHIO

CITY           SKY/WX    TMP DP  RH WIND       PRES   REMARKS
DEFIANCE       FAIR      89  60  37 S5        29.96F
FINDLAY        FAIR      90  56  31 W8        29.96F
TOLEDO EXPRESS FAIR      87  62  43 SW6       29.96F
TOLEDO EXEC    FAIR      90  60  36 SW7       29.96F
LIMA           FAIR      87  64  46 VRB3      29.97F
$$

OHZ009>014-019>023-028>033-038-089-272100-
   NORTHEAST OHIO

CITY           SKY/WX    TMP DP  RH WIND       PRES   REMARKS
CLE-HOPKINS    FAIR      89  56  32 N9        29.99F
CLE-LAKEFRONT  FAIR      84  65  52 NW9       29.96F
CUY CO. ARPT   MOSUNNY  N/A N/A N/A E12       29.99F
LORAIN-ELYRIA  FAIR      87  60  40 N6        29.98F
ASHTABULA      FAIR      84  62  47 N8        29.99F
AKRON-CANTON   FAIR      87  56  34 S6        29.99F
WOOSTER        FAIR      89  57  33 NE3       29.98F
MANSFIELD      FAIR      87  57  35 CALM      29.99F
YOUNGSTOWN     PTSUNNY   87  59  38 NE8       29.99F
$$

OHZ042-051>053-060>062-070>072-077>081-272100-
  SOUTHWEST OHIO

CITY           SKY/WX    TMP DP  RH WIND       PRES   REMARKS
CINC-COVINGTON PTSUNNY   86  72  62 W5        29.98F HX  92
CINC-LUNKEN    FAIR      88  72  58 W9        29.96F HX  94
HAMILTON       PTSUNNY   89  67  47 W7        29.97F HX  92
DAYTON         FAIR      88  62  41 W5        29.99F
WRIGHT-PAT AFB MOSUNNY   89  66  45 W6        29.97F HX  92
DAYTON GENERAL FAIR      89  64  43 W10       29.97F HX  90
WILMINGTON     FAIR      90  68  48 W8        29.98F HX  94
$$

OHZ036-037-039>041-045>050-054>059-063>069-073>076-082>088-272100-
  CENTRAL AND SOUTHEAST OHIO

CITY           SKY/WX    TMP DP  RH WIND       PRES   REMARKS
COLUMBUS       FAIR      87  65  47 N9        29.96F
OSU AIRPORT    FAIR      90  65  43 W6        29.96F HX  92
BOLTON FIELD     N/A     88  66  48 CALM        N/A  HX  90
RICKENBACK AFB FAIR      89  68  50 W7        29.95F HX  92
NEWARK         FAIR      89  65  44 VRB3      29.96F HX  91
MARION         FAIR      90  56  31 NW6       29.98F
LANCASTER      FAIR      86  69  56 VRB6      29.97F HX  90
ZANESVILLE     PTSUNNY   91  67  44 W3        29.96F HX  94
NEW PHILLY     FAIR      95  59  30 VRB5      29.96F HX  94
$$




USA.gov is the U.S. government's official web portal to all federal, state and local government web resources and services.